Volver al catálogo

SL-12 DEB

LostHEO
NORAD 29432·DEBRIS·🇷🇺 Russia

Lanzado May 31, 1989 desde Baikonur Cosmodrome

Loading…

Próximos Pases (próximas 24 horas)

TLE

ObsoletoSource: Space-Track

Época: May 7, 2007, 03:02 UTC

1 29432U 89039CG  07127.12673488 +.00000073 +00000-0 +10000-3 0  9999
2 29432 065.5533 175.4742 5310512 074.8935 342.6129 04.45982095013166

Sigue SL-12 DEB en tiempo real con AllMySat

Download on the App Store